Tracking 19192 objects as of 21-Jun-2018
HD Live streaming from Space Station
objects crossing your sky now

FENGYUN 1C DEB

Track FENGYUN 1C DEB now!
10-day predictions


NORAD ID: 31682
Int'l Code: 1999-025CCQ
Perigee: 690.9 km
Apogee: 735.7 km
Inclination: 98.7 °
Period: 98.9 minutes
Semi major axis: 7084 km
RCS: 0.0091 m2 (small)
Launch date: May 10, 1999
Source: People's Republic of China (PRC)
Launch site: Taiyaun Space Center, China (TSC)

Note: This is SATELLITE DEBRIS
aabbcc
Your satellite tracking list
Your tracking list is empty




NASA's NSSDC Master Catalog

Two Line Element Set (TLE):
1 31682U 99025CCQ 18170.39323882 +.00002785 +00000-0 +64044-3 0  9993
2 31682 098.7229 225.0395 0031632 251.0881 108.6885 14.55989051214443
Source of the keplerian elements: AFSPC